K6HN Weather Reports


time (UTC)temp
C
wind
direction
speed
KPH
gust
KPH
rain 1hr
cm
rain 24hr
cm
rain mn
cm
humidity
%
barometer
mb
20260503222759 16 230 11.3 17.7 0.00 0.00 0.08 49 998.6
20260503221259 16 191 8.0 17.7 0.00 0.00 0.08 48 998.6
20260503215759 16 205 8.0 25.7 0.00 0.00 0.08 49 998.6
20260503214259 15 257 6.4 16.1 0.00 0.00 0.08 49 998.6
20260503212759 16 221 6.4 12.9 0.00 0.00 0.08 49 999.0
20260503211259 16 262 11.3 25.7 0.00 0.00 0.08 49 998.6
20260503205759 15 165 8.0 16.1 0.00 0.00 0.08 52 998.6
20260503204259 15 202 4.8 12.9 0.00 0.00 0.08 52 998.6
20260503202759 15 199 12.9 20.9 0.00 0.00 0.08 52 998.6
20260503201259 16 262 8.0 17.7 0.00 0.00 0.08 51 999.0
20260503195759 15 231 11.3 16.1 0.00 0.00 0.08 51 999.0
20260503194259 14 219 11.3 14.5 0.03 0.00 0.08 51 998.6
20260503192759 13 207 6.4 12.9 0.03 0.00 0.08 52 999.0
20260503191259 13 247 12.9 14.5 0.03 0.00 0.08 53 999.0
20260503185759 13 223 8.0 14.5 0.03 0.00 0.08 53 999.0
20260503184259 13 186 6.4 9.7 0.00 0.00 0.05 53 999.0
20260503182759 13 205 8.0 14.5 0.00 0.00 0.05 51 998.6
20260503181259 13 276 8.0 14.5 0.00 0.00 0.05 51 999.0
20260503175759 13 150 6.4 9.7 0.00 0.00 0.05 51 998.6
20260503174259 12 230 4.8 9.7 0.00 0.00 0.05 51 998.6
20260503172759 12 239 3.2 11.3 0.00 0.00 0.05 52 998.6
20260503171259 12 224 8.0 12.9 0.03 0.00 0.05 51 998.6
20260503131259 10 285 1.6 1.6 0.00 0.00 0.00 52 996.6
20260503081259 11 286 3.2 8.0 0.00 0.00 0.00 52 997.6
20260503072759 11 302 4.8 8.0 0.00 0.00 0.00 52 997.3
20260503071259 11 244 3.2 4.8 0.00 0.00 0.00 52 997.6
20260503054259 11 288 4.8 4.8 0.00 0.00 0.00 52 997.6
20260503052759 11 265 6.4 14.5 0.00 0.00 0.00 52 998.0
20260503051259 11 254 6.4 11.3 0.00 0.00 0.00 52 998.0
20260503045759 11 315 3.2 9.7 0.00 0.00 0.00 52 998.0
20260503044259 11 265 8.0 9.7 0.00 0.00 0.00 52 998.0
20260503042759 11 251 4.8 8.0 0.00 0.00 0.00 52 998.0
20260503041259 11 260 6.4 11.3 0.00 0.00 0.00 52 997.6
20260503035759 11 298 4.8 9.7 0.00 0.00 0.00 52 997.6
20260503034259 11 251 8.0 11.3 0.00 0.00 0.00 52 997.6
20260503032759 11 281 4.8 11.3 0.00 0.00 0.00 52 997.3
20260503031259 11 247 6.4 11.3 0.00 0.00 0.00 52 997.3
20260503025759 11 311 8.0 11.3 0.00 0.00 0.00 52 997.0
20260503024259 11 313 6.4 16.1 0.00 0.00 0.00 51 997.0
20260503022759 11 321 8.0 11.3 0.00 0.00 0.00 51 997.0
20260503021259 11 281 9.7 11.3 0.00 0.00 0.00 51 997.0
20260503015759 11 290 3.2 12.9 0.00 0.00 0.00 51 997.3
20260503014259 11 298 3.2 12.9 0.00 0.00 0.00 51 997.3
20260503012759 11 312 6.4 14.5 0.00 0.00 0.00 51 997.3
20260503011259 12 277 8.0 20.9 0.00 0.00 0.00 51 997.3
20260503005759 12 309 8.0 14.5 0.00 0.00 0.00 51 997.6
20260503004259 12 278 8.0 14.5 0.00 0.00 0.00 51 997.3
20260503002759 12 264 3.2 8.0 0.00 0.00 0.00 51 997.6
20260503001259 12 286 8.0 12.9 0.00 0.00 0.00 51 997.6
20260502235759 12 307 3.2 11.3 0.00 0.00 0.00 51 997.6
20260502234259 12 312 6.4 12.9 0.00 0.00 0.00 51 998.0
20260502232759 12 318 4.8 12.9 0.00 0.00 0.00 50 997.6
20260502231259 13 253 6.4 12.9 0.00 0.00 0.00 51 998.0
20260502225759 12 262 8.0 12.9 0.00 0.00 0.00 49 998.3
20260502224259 12 212 4.8 9.7 0.00 0.00 0.00 51 998.6